VIV176T MMTJ-MMSD

Flight info

Callsign VIV176T
Flight time N/A
Altitude 37000
Route SIDGA1B SIDGA UT6 IMUSU UT25 LTO/N0379F170 V4 ENEKO ENEKO1A
Aircraft A320/M-SDE3FGHIRWY/LB1

Departure

Time 2026-04-19 06:55
Airport General Abelardo L. Rodriguez International Airport (MMTJ)

Arrival

Time N/A
Airport Los Cabos International Airport (MMSD)
Time Latitude Longitude Altitude Speed Heading
2026-04-19 06:08 32.54511 -116.97651 470 ft 0 kts 278°
2026-04-19 06:31 32.54510 -116.97649 471 ft 1 kts 278°
2026-04-19 06:31 32.54508 -116.97629 469 ft 3 kts 271°
2026-04-19 06:32 32.54509 -116.97606 469 ft 3 kts 254°
2026-04-19 06:32 32.54517 -116.97585 468 ft 3 kts 222°
2026-04-19 06:32 32.54529 -116.97577 467 ft 1 kts 188°
2026-04-19 06:32 32.54533 -116.97576 469 ft 0 kts 187°
2026-04-19 06:36 32.54523 -116.97578 469 ft 2 kts 187°
2026-04-19 06:36 32.54502 -116.97581 469 ft 4 kts 187°
2026-04-19 06:36 32.54469 -116.97586 471 ft 6 kts 187°
2026-04-19 06:36 32.54426 -116.97593 471 ft 7 kts 187°
2026-04-19 06:37 32.54416 -116.97595 471 ft 1 kts 187°
2026-04-19 06:37 32.54411 -116.97596 471 ft 0 kts 187°
2026-04-19 06:40 32.54410 -116.97596 468 ft 1 kts 187°
2026-04-19 06:40 32.54402 -116.97597 471 ft 2 kts 187°
2026-04-19 06:41 32.54395 -116.97598 469 ft 1 kts 187°
2026-04-19 06:41 32.54388 -116.97599 471 ft 0 kts 187°
2026-04-19 06:42 32.54386 -116.97600 470 ft 1 kts 187°
2026-04-19 06:42 32.54377 -116.97601 472 ft 2 kts 187°
2026-04-19 06:42 32.54372 -116.97602 470 ft 0 kts 187°
2026-04-19 06:44 32.54510 -116.97647 469 ft 0 kts 278°
2026-04-19 06:48 32.54510 -116.97646 469 ft 1 kts 279°
2026-04-19 06:48 32.54508 -116.97629 469 ft 3 kts 273°
2026-04-19 06:48 32.54508 -116.97606 468 ft 3 kts 256°
2026-04-19 06:49 32.54515 -116.97585 467 ft 3 kts 222°
2026-04-19 06:49 32.54526 -116.97577 470 ft 1 kts 188°
2026-04-19 06:49 32.54527 -116.97577 470 ft 0 kts 187°
2026-04-19 06:51 32.54518 -116.97578 468 ft 2 kts 187°
2026-04-19 06:52 32.54513 -116.97579 467 ft 1 kts 187°
2026-04-19 06:52 32.54502 -116.97581 469 ft 3 kts 187°
2026-04-19 06:52 32.54499 -116.97582 471 ft 3 kts 187°
2026-04-19 06:53 32.54473 -116.97586 470 ft 5 kts 187°
2026-04-19 06:53 32.54436 -116.97592 471 ft 7 kts 187°
2026-04-19 06:53 32.54214 -116.97632 477 ft 72 kts 191°
2026-04-19 06:53 32.53531 -116.97844 578 ft 83 kts 77°
2026-04-19 06:54 32.53401 -116.97927 380 ft 0 kts 303°
2026-04-19 06:54 32.53909 -116.95501 475 ft 1 kts 281°
2026-04-19 06:54 32.53927 -116.95615 472 ft 49 kts 279°
2026-04-19 06:54 32.54026 -116.96368 478 ft 131 kts 279°
2026-04-19 06:55 32.54197 -116.97673 596 ft 182 kts 277°
2026-04-19 06:55 32.54268 -116.99267 1241 ft 198 kts 261°
2026-04-19 06:55 32.53750 -117.00777 2229 ft 202 kts 231°
2026-04-19 06:55 32.52656 -117.01858 2961 ft 212 kts 208°
2026-04-19 06:56 32.51412 -117.02934 3336 ft 235 kts 232°
2026-04-19 06:56 32.50800 -117.04809 3744 ft 259 kts 261°
2026-04-19 06:56 32.50636 -117.06950 4435 ft 267 kts 264°
2026-04-19 06:56 32.50127 -117.09061 5244 ft 270 kts 236°
2026-04-19 06:57 32.48910 -117.10721 6138 ft 267 kts 216°